Showing default

ORBCOMM FM 109, 40086

Orbit data source: Space-Track

ORBCOMM FM 109, 40086 is a payload satellite owned by Orbcomm (US) in LEO that was launched on Mon, 14 Jul 2014 UTC via an FALCON 9 launch vehicle from the Air Force Eastern Test Range (AFETR). Payload-class satellites include a variety of spacecraft equipped with specific instruments for various scientific and technological missions. These include communications satellites like Starlink; space stations such as the ISS; scientific satellites like the Hubble; Earth observation satellites from companies like Planet Labs, Umbra, and HawkEye 360; GPS; miniature CubeSats for education and research; and military/defense satellites.

Loading next visibility...
Identifier
40086, 2014-040A
Orbit
LEO
Last TLE update
1 day ago
Origin
Manufacturer
SNC Louisville
Mission
Operational Commercial Communications
Bus & Motor
SN-100A, Unknown motor
Mass
172 kg wet, 158 kg dry
Launch date (UTC)
2014-07-14 (11 years ago)
Launch vehicle
FALCON 9
Launch site
Air Force Eastern Test Range (AFETR)
Object type
Payload
Rocket body
Debris
Shape & HBR
Box + 1 Pan + 1 Ant, 13 m
Radar Cross Section
2.222 m², Medium (>0.1 m² and < 1m²)

Expand to show TLE details & history

TLE from 1 day ago
0 ORBCOMM FM 109
1 40086U 14040A   25181.40921693  .00000238  00000-0  87579-4 0  9991
2 40086  47.0040 313.8472 0000958  24.2676 335.8254 14.58189815582995
Epoch: 2025-06-30T09:49Z
TLE epoch observation values (Epoch: 2025-06-30T09:49:16.342Z)
Latitude
-0.00007°
Longitude
-112.1904°
Altitude
698.622 km
Speed
7.509 km/s
True Right ascension
20h 55m 23s
True Declination
0° 00' 00"
Sunlit
Object was in full shadow at epoch
Visualization orbit readout
Latitude
-43.67514°
Longitude
125.35997°
Altitude
713.58 km
Speed
7.499 km/s
Apparent Right ascension
11h 13m 55s
Apparent Declination
-44° 11' 15"
Sunlit
Object is in daylight
Visualization observer readout
Local Sidereal Time
21:37:32
Azimuth
248.626° W
Elevation
-71.677°
Doppler factor
1
Orbital elements
Apogee altitude
700.937 km
Perigee altitude
699.581 km
Semi-major axis
7,078.396 km
Eccentricity
0.0001
Inclination
47.004°
RAAN
313.8472°
Arg. of periapsis
24.2676°
True anomaly
Unknown
Mean anomaly
335.8254°
Eccentric anomaly
Unknown
Mean motion
3.64452 °/min
Orbital period
98.78 mins
BSTAR
0.000087579
Loading maneuver chart data...
Loading SW <> Apogee altitude chart data...
Loading historical data...
Loading historical data...
Loading historical data...
Loading historical data...
Loading historical data...
Loading historical data...
Loading historical data...

ORBCOMM FM 109 Visibility forecast

Observer location: undefined°, undefined°

Span
Click to sort rows by Start time (UTC) header in descending order
Start Az.
Max El. time (UTC)
Max El. Az.
Max El.
End time (UTC)
End Az.
7 mins2025-07-01 10:38:10.203Z185.459° SSW2025-07-01 10:42:10.203Z129.318° SE21.143°2025-07-01 10:45:10.203Z88.644° E
8 mins2025-07-01 12:21:10.203Z243.244° WSW2025-07-01 12:25:10.203Z37.362° NE44.547°2025-07-01 12:29:10.203Z61.157° ENE
7 mins2025-07-01 14:06:10.203Z295.682° NW2025-07-01 14:09:10.203Z1.203° NNE31.936°2025-07-01 14:13:10.203Z59.038° ENE
7 mins2025-07-01 15:50:10.203Z311.427° NW2025-07-01 15:53:10.203Z13.476° NNE33.568°2025-07-01 15:57:10.203Z79.684° E
8 mins2025-07-01 17:33:10.203Z295.829° NW2025-07-01 17:37:10.203Z171.738° S44.328°2025-07-01 17:41:10.203Z124.879° SE
5 mins2025-07-01 19:18:10.203Z251.54° W2025-07-01 19:20:10.203Z222.206° SW17.19°2025-07-01 19:23:10.203Z184.552° SSW
|